STARLINK-34007, 63868

Orbit data source: Space-Track

STARLINK-34007, 63868 is a payload satellite owned by SpaceX/Seattle (US) in LEO that was launched on Sat, 10 May 2025 UTC via an FALCON 9 launch vehicle from the Air Force Western Test Range (AFWTR). Payload-class satellites include a variety of spacecraft equipped with specific instruments for various scientific and technological missions. These include communications satellites like Starlink; space stations such as the ISS; scientific satellites like the Hubble; Earth observation satellites from companies like Planet Labs, Umbra, and HawkEye 360; GPS; miniature CubeSats for education and research; and military/defense satellites.

Loading next visibility...
Identifier
63868, 2025-094E
Orbit
LEO
Country
Flag of USUS
Related business
Manufacturer
SpaceX/Seattle
Mission
Operational Commercial Communications
Bus & Motor
STARLINK V2MO, Unknown motor
Mass
575 kg wet, ~530 kg dry
Launch date (UTC)
2025-05-10 (1 year ago)
Launch vehicle
FALCON 9
Launch site
Air Force Western Test Range (AFWTR)
Object type
Payload
Rocket body
Debris
Shape & HBR
Box + 2 Pan, 17.7 m
Radar Cross Section
36.964 m², Large (>1 m²)

Expand to show TLE details & history
Last TLE update: 1 day ago

TLE from 1 day ago
0 STARLINK-34007
1 63868U 25094E   26170.86439420  .00007872  00000-0  66640-3 0  9992
2 63868  70.0024 337.0136 0002603 288.1865  71.9011 14.98351282 62503
Epoch: 2026-06-19T20:44Z
TLE epoch observation values (Epoch: 2026-06-19T20:44:43.658Z)
Latitude
-0.00001°
Longitude
117.74444°
Altitude
573.852 km
Speed
7.575 km/s
True Right ascension
22h 28m 03s
True Declination
0° 00' 00"
Sunlit
Object was in daylight at epoch
Visualization orbit readout
Latitude
Unknown
Longitude
Unknown
Altitude
Unknown
Speed
Unknown
Apparent Right ascension
Unknown
Apparent Declination
Unknown
Sunlit
N/A
Visualization observer readout
Local Sidereal Time
07:17:45
Azimuth
Unknown
Elevation
Unknown
Doppler factor
Unknown
Orbital elements
Apogee altitude
571.747 km
Perigee altitude
568.129 km
Semi-major axis
6,948.075 km
Eccentricity
0.00026
Inclination
70.0024°
RAAN
337.0136°
Arg. of periapsis
288.1865°
True anomaly
71.92946°
Mean anomaly
71.9011°
Eccentric anomaly
71.91528°
Mean motion
3.74754 °/min
Orbital period
96.06 mins
BSTAR
0.0006664
Loading maneuver chart data...
Computing Atmospheric mass density...
Loading historical data...
Loading historical data...
Loading historical data...
Loading historical data...
Loading historical data...
Loading historical data...
Loading historical data...

Documentation

Showing up to 5 results
|